Weather reports worldwide

Advertisment
Palermo/Punta Raisi, Italy (16405): temperature & dewpoint: 14.06.2018 11:00:00 - 20.06.2018 11:00:00 (CEST)Palermo/Punta Raisi, Italy (16405): wind speed: 14.06.2018 11:00:00 - 20.06.2018 11:00:00 (CEST)Palermo/Punta Raisi, Italy (16405): wind direction: 14.06.2018 11:00:00 - 20.06.2018 11:00:00 (CEST)Palermo/Punta Raisi, Italy (16405): reduced air pressure: 14.06.2018 11:00:00 - 20.06.2018 11:00:00 (CEST)Palermo/Punta Raisi, Italy (16405): visibility: 14.06.2018 11:00:00 - 20.06.2018 11:00:00 (CEST)Palermo/Punta Raisi, Italy (16405): precipitation: 14.06.2018 11:00:00 - 20.06.2018 11:00:00 (CEST)
Date & Time tt [°C] td [°C] ff [km/h] ff [kn] dd ppp [hPa] vv [km] rr [mm]
20.06.2018 11:00:00 25,2 20,8 18 10 NE 1017,3 10 0,0
20.06.2018 10:00:00 25,0 20,0 8 4 NNE - 10 -
20.06.2018 09:00:00 23,0 21,0 5 3 WSW - 10 -
20.06.2018 08:00:00 23,3 20,5 2 1 - 1017,2 10 -
20.06.2018 07:00:00 23,0 20,0 4 2 - - 10 -
20.06.2018 06:00:00 23,0 20,0 5 3 W - 10 -
20.06.2018 05:00:00 22,7 18,3 4 2 S 1016,3 10 0,0
20.06.2018 04:00:00 22,0 18,0 2 1 - - 10 -
20.06.2018 03:00:00 23,0 18,0 9 5 E - 10 -
20.06.2018 02:00:00 22,8 19,9 18 10 ENE 1016,0 10 -
20.06.2018 01:00:00 23,0 21,0 21 11 ENE - 10 -
20.06.2018 00:00:00 23,0 21,0 18 10 NE - 10 -
19.06.2018 23:00:00 23,6 20,6 18 10 ENE 1016,2 10 0,0
19.06.2018 22:00:00 24,0 21,0 21 11 NE - 10 -
19.06.2018 21:00:00 24,0 20,0 21 11 NE - 10 -
19.06.2018 20:00:00 24,4 20,3 24 13 NE 1015,0 10 -
19.06.2018 19:00:00 25,0 20,0 21 11 NE - 10 -
19.06.2018 18:00:00 25,0 21,0 18 10 NE - 10 -
19.06.2018 17:00:00 25,5 21,3 13 7 NNE 1015,2 10 0,0
19.06.2018 16:00:00 26,0 21,0 16 9 NNE - 10 -
19.06.2018 15:00:00 25,0 21,0 18 10 NNE - 10 -
19.06.2018 14:00:00 24,6 20,8 21 11 NNE 1015,0 10 -
19.06.2018 13:00:00 24,0 21,0 21 11 NNE - 10 -
19.06.2018 12:00:00 25,0 21,0 21 11 NNE - 10 -
19.06.2018 11:00:00 24,2 20,3 18 10 NNE 1015,1 10 0,0
19.06.2018 10:00:00 24,0 20,0 18 10 NNE - 10 -
19.06.2018 09:00:00 24,0 19,0 16 9 NNE - 10 -
19.06.2018 08:00:00 23,4 18,7 11 6 NE 1014,4 10 -
19.06.2018 07:00:00 22,0 19,0 9 5 NE - 10 -
19.06.2018 06:00:00 21,0 19,0 9 5 ENE - 10 -
19.06.2018 05:00:00 21,1 18,0 9 5 E 1013,4 10 0,0
19.06.2018 04:00:00 23,0 20,0 9 5 NNE - 10 -
19.06.2018 03:00:00 23,0 20,0 8 4 NNW - 10 -
19.06.2018 02:00:00 22,5 20,1 5 3 WNW 1013,5 10 -
19.06.2018 01:00:00 23,0 20,0 5 3 NW - 10 -
19.06.2018 00:00:00 23,0 20,0 8 4 NW - 10 -
18.06.2018 23:00:00 22,9 20,0 11 6 NNW 1014,4 10 0,0
18.06.2018 22:00:00 23,0 20,0 9 5 NW - 10 -
18.06.2018 21:00:00 23,0 19,0 4 2 - - 10 -
18.06.2018 20:00:00 23,1 19,6 11 6 NW 1013,4 10 -
18.06.2018 19:00:00 24,0 19,0 5 3 WNW - 10 -
18.06.2018 18:00:00 24,0 20,0 8 4 W - 10 -
18.06.2018 17:00:00 23,7 20,0 11 6 WNW 1013,3 10 0,0
18.06.2018 16:00:00 23,0 20,0 15 8 WNW - 10 -
18.06.2018 15:00:00 24,0 20,0 16 9 NW - 10 -
18.06.2018 14:00:00 23,9 19,6 15 8 NW 1014,0 10 -
18.06.2018 13:00:00 23,0 19,0 16 9 WNW - 10 -
18.06.2018 12:00:00 24,0 19,0 15 8 NW - 10 -
18.06.2018 11:00:00 23,5 17,9 13 7 NNW 1014,1 10 0,0
18.06.2018 10:00:00 23,0 17,0 5 3 NW - 10 -
18.06.2018 09:00:00 23,0 17,0 4 2 - - 10 -
18.06.2018 08:00:00 22,6 16,9 5 3 SSE 1013,8 10 -
18.06.2018 07:00:00 21,0 17,0 11 6 SSE - 10 -
18.06.2018 06:00:00 20,0 17,0 8 4 S - 10 -
18.06.2018 05:00:00 20,9 18,3 8 4 SW 1013,9 10 0,0
18.06.2018 04:00:00 22,0 19,0 9 5 W - 10 -
18.06.2018 03:00:00 - - - - - - - -
18.06.2018 02:00:00 21,8 19,1 9 5 SW 1014,6 10 -
18.06.2018 01:00:00 22,0 19,0 9 5 W - 10 -
18.06.2018 00:00:00 20,0 17,0 8 4 S - 10 -
17.06.2018 23:00:00 21,2 18,6 5 3 SSW 1015,2 10 0,0
17.06.2018 22:00:00 21,0 19,0 5 3 SSW - 10 -
17.06.2018 21:00:00 22,0 19,0 8 4 WSW - 10 -
17.06.2018 20:00:00 22,0 19,5 15 8 W 1014,8 10 -
17.06.2018 19:00:00 23,0 19,0 13 7 W - 10 -
17.06.2018 18:00:00 23,0 19,0 13 7 W - 10 -
17.06.2018 17:00:00 23,9 19,0 13 7 NW 1014,8 10 0,0
17.06.2018 16:00:00 24,0 19,0 15 8 WNW - 10 -
17.06.2018 15:00:00 24,0 20,0 13 7 WNW - 10 -
17.06.2018 14:00:00 23,8 19,4 13 7 WNW 1015,2 - -
17.06.2018 13:00:00 23,0 19,0 15 8 WNW - 10 -
17.06.2018 12:00:00 23,0 18,0 15 8 WNW - 10 -
17.06.2018 11:00:00 23,0 18,8 13 7 WNW 1014,6 - 0,0
17.06.2018 10:00:00 22,0 19,0 9 5 W - 10 -
17.06.2018 09:00:00 22,0 19,0 8 4 WSW - 10 -
17.06.2018 08:00:00 21,7 18,2 11 6 WSW 1013,9 10 -
17.06.2018 07:00:00 20,0 17,0 9 5 SSE - 10 -
17.06.2018 06:00:00 20,0 17,0 5 3 SSE - 10 -
17.06.2018 05:00:00 20,8 17,4 4 2 - 1013,0 10 0,0
17.06.2018 04:00:00 22,0 19,0 9 5 NW - 10 -
17.06.2018 03:00:00 22,0 18,0 11 6 NW - 10 -
17.06.2018 02:00:00 22,0 18,6 18 10 NW 1013,5 10 -
17.06.2018 01:00:00 22,0 19,0 16 9 NW - 10 -
17.06.2018 00:00:00 22,0 19,0 18 10 WNW - 10 -
16.06.2018 23:00:00 21,9 19,4 21 11 W 1013,6 10 0,0
16.06.2018 22:00:00 22,0 20,0 22 12 W - 10 -
16.06.2018 21:00:00 22,0 20,0 24 13 W - 10 -
16.06.2018 20:00:00 21,9 18,7 18 10 W 1012,3 10 -
16.06.2018 19:00:00 23,0 19,0 21 11 W - 9 -
16.06.2018 18:00:00 23,0 20,0 21 11 W - 9 -
16.06.2018 17:00:00 22,6 19,4 22 12 W 1012,1 9 0,0
16.06.2018 16:00:00 - - - - - - - -
16.06.2018 15:00:00 23,0 20,0 18 10 WNW - 9 -
16.06.2018 14:00:00 22,8 19,9 22 12 W 1012,3 10 -
16.06.2018 13:00:00 23,0 19,0 24 13 WNW - 10 -
16.06.2018 12:00:00 23,0 20,0 22 12 W - 10 -
16.06.2018 11:00:00 22,5 19,7 21 11 W 1011,7 10 0,0
16.06.2018 10:00:00 22,0 19,0 18 10 W - 10 -
16.06.2018 09:00:00 22,0 19,0 16 9 W - 10 -
16.06.2018 08:00:00 22,0 19,0 16 9 W 1010,9 10 -
16.06.2018 07:00:00 22,0 19,0 21 11 W - 10 -
16.06.2018 06:00:00 22,0 19,0 26 14 WNW - 10 -
16.06.2018 05:00:00 21,7 19,0 18 10 W 1010,5 10 0,0
16.06.2018 04:00:00 21,0 18,0 18 10 W - 10 -
16.06.2018 03:00:00 22,0 18,0 22 12 W - 10 -
16.06.2018 02:00:00 21,8 18,9 22 12 W 1010,9 10 -
16.06.2018 01:00:00 22,0 19,0 28 15 W - 10 -
16.06.2018 00:00:00 22,0 19,0 21 11 W - 10 -
15.06.2018 23:00:00 21,7 18,9 18 10 W 1011,1 10 0,0
15.06.2018 22:00:00 22,0 19,0 21 11 W - 10 -
15.06.2018 21:00:00 22,0 19,0 16 9 W - 10 -
15.06.2018 20:00:00 21,9 19,1 21 11 W 1010,4 10 -
15.06.2018 19:00:00 22,0 19,0 28 15 W - 10 -
15.06.2018 18:00:00 22,0 19,0 26 14 W - 10 -
15.06.2018 17:00:00 22,4 18,9 26 14 W 1009,8 10 0,0
15.06.2018 16:00:00 22,0 19,0 26 14 W - 10 -
15.06.2018 15:00:00 23,0 19,0 24 13 WNW - 10 -
15.06.2018 14:00:00 22,8 18,8 22 12 WNW 1010,0 10 -
15.06.2018 13:00:00 23,0 19,0 21 11 NW - 10 -
15.06.2018 12:00:00 23,0 19,0 22 12 NW - 10 -
15.06.2018 11:00:00 22,8 19,4 15 8 NW 1009,0 10 0,0
15.06.2018 10:00:00 22,0 18,0 16 9 NNW - 10 -
15.06.2018 09:00:00 22,0 18,0 16 9 NW - 10 -
15.06.2018 08:00:00 21,8 18,0 22 12 NW 1008,3 10 -
15.06.2018 07:00:00 21,0 18,0 22 12 NNW - 10 -
15.06.2018 06:00:00 21,0 18,0 21 11 NW - 10 -
15.06.2018 05:00:00 21,0 17,8 21 11 NW 1007,5 - 0,0
15.06.2018 04:00:00 - - - - - - - -
15.06.2018 03:00:00 22,0 17,0 21 11 NW - 10 -
15.06.2018 02:00:00 21,3 17,0 18 10 NW 1007,9 10 -
15.06.2018 01:00:00 21,0 17,0 21 11 NW - 10 -
15.06.2018 00:00:00 21,0 17,0 21 11 NW - 10 -
14.06.2018 23:00:00 21,3 17,6 21 11 NW 1008,1 10 0,0
14.06.2018 22:00:00 22,0 18,0 21 11 NW - 10 -
14.06.2018 21:00:00 22,0 18,0 26 14 WNW - 10 -
14.06.2018 20:00:00 21,5 17,7 21 11 WNW 1006,8 10 -
14.06.2018 19:00:00 21,0 18,0 31 17 W - 10 -
14.06.2018 18:00:00 22,0 17,0 26 14 WSW - 10 -
14.06.2018 17:00:00 21,3 17,6 35 19 W 1006,3 10 0,0
14.06.2018 16:00:00 22,0 18,0 31 17 W - 10 -
14.06.2018 15:00:00 22,0 17,0 31 17 W - 9 -
14.06.2018 14:00:00 21,5 17,3 37 20 W 1006,6 9 -
14.06.2018 13:00:00 22,0 17,0 34 18 W - 9 -
14.06.2018 12:00:00 22,0 17,0 37 20 W - 9 -
14.06.2018 11:00:00 21,5 17,2 39 21 W 1006,7 9 0,0

tt = temperature
td = dewpoint
ff = wind speed
dd = wind direction
ppp = reduced air pressure
vv = visibility
rr = precipitation

Next stations